Change the Weather History Date:

Sunday, March 30, 2014

  Actual Average (KCIU) Record (KCIU)
Temperature  
Mean Temperature 24 °F -  
Max Temperature 37 °F 43 °F 61 °F (1993)
Min Temperature 11 °F 23 °F 3 °F (1991)
Degree Days  
Heating Degree Days 41    
Moisture  
Dew Point 13 °F    
Average Humidity 62    
Maximum Humidity 95    
Minimum Humidity 34    
Precipitation  
Precipitation 0.00 in - - ()
Sea Level Pressure  
Sea Level Pressure 30.17 in    
Wind  
Wind Speed 1 mph (SE)    
Max Wind Speed 8 mph    
Max Gust Speed -    
Visibility 10 miles    
Events      
Averages and records for this station are not official NWS values.
T = Trace of Precipitation, MM = Missing Value Source: NWS Daily Summary

Daily Weather History Graph

Daily Weather History Graph

Search for Another Location

Airport or City:

Trip Planner

Search our weather history database for the weather conditions in past years. The results will help you decide how hot, cold, wet, or windy it might be!

Date:

Astronomy

Mar. 30, 2014 Rise Set
Actual Time 7:18 AM EDT 8:00 PM EDT
Civil Twilight 6:48 AM EDT 8:31 PM EDT
Nautical Twilight 6:12 AM EDT 9:07 PM EDT
Astronomical Twilight 5:35 AM EDT 9:44 PM EDT
Moon 7:04 AM EDT (3/30) 8:14 PM EDT (3/30)
Length of Visible Light 13h 42m
Length of Day
12h 42m
Waning Crescent, 0% of the Moon is Illuminated
Mar 30
Waning Crescent
Mar 30
New
Apr 7
First Quarter
Apr 15
Full
Apr 22
Last Quarter

Hourly Weather History & Observations

Time (EDT) Temp. Windchill Dew Point Humidity Pressure Visibility Wind Dir Wind Speed Gust Speed Precip Events Conditions
12:14 AM 21.9 °F - 19.4 °F 90% 30.24 in 10.0 mi Calm Calm - N/A   Clear
12:35 AM 21.6 °F - 19.4 °F 91% 30.24 in 10.0 mi Calm Calm - N/A   Clear
12:55 AM 20.5 °F - 18.7 °F 93% 30.24 in 10.0 mi Calm Calm - N/A   Clear
1:14 AM 19.8 °F - 18.1 °F 93% 30.24 in 10.0 mi Calm Calm - N/A   Clear
1:35 AM 18.9 °F - 17.2 °F 93% 30.24 in 10.0 mi Calm Calm - N/A   Clear
1:55 AM 19.0 °F - 17.6 °F 94% 30.24 in 10.0 mi Calm Calm - N/A   Clear
2:15 AM 18.9 °F - 17.6 °F 95% 30.24 in 10.0 mi Calm Calm - N/A   Clear
2:35 AM 18.1 °F - 16.7 °F 94% 30.24 in 10.0 mi Calm Calm - N/A   Clear
2:55 AM 18.3 °F - 16.9 °F 94% 30.24 in 10.0 mi Calm Calm - N/A   Clear
3:15 AM 17.6 °F - 16.2 °F 94% 30.23 in 10.0 mi Calm Calm - N/A   Clear
3:35 AM 16.7 °F - 15.3 °F 94% 30.23 in 10.0 mi Calm Calm - N/A   Clear
3:55 AM 17.2 °F - 15.6 °F 93% 30.24 in 10.0 mi Calm Calm - N/A   Clear
4:15 AM 16.2 °F - 14.4 °F 93% 30.22 in 10.0 mi Calm Calm - N/A   Clear
4:34 AM 15.3 °F - 13.6 °F 93% 30.22 in 10.0 mi Calm Calm - N/A   Clear
4:55 AM 15.3 °F - 13.8 °F 94% 30.23 in 10.0 mi Calm Calm - N/A   Clear
5:15 AM 14.7 °F - 13.1 °F 93% 30.23 in 10.0 mi Calm Calm - N/A   Clear
5:34 AM 14.9 °F - 13.5 °F 94% 30.24 in 10.0 mi Calm Calm - N/A   Clear
5:55 AM 14.4 °F - 12.9 °F 94% 30.23 in 10.0 mi Calm Calm - N/A   Clear
6:15 AM 14.0 °F - 12.2 °F 93% 30.24 in 10.0 mi Calm Calm - N/A   Clear
6:35 AM 13.6 °F - 11.8 °F 93% 30.25 in 10.0 mi Calm Calm - N/A   Clear
6:55 AM 12.2 °F - 10.2 °F 92% 30.25 in 10.0 mi Calm Calm - N/A   Clear
7:14 AM 12.0 °F - 9.9 °F 91% 30.25 in 10.0 mi Calm Calm - N/A   Clear
7:35 AM 11.7 °F - 9.5 °F 91% 30.24 in 10.0 mi Calm Calm - N/A   Clear
7:55 AM 12.4 °F - 10.2 °F 91% 30.24 in 10.0 mi Calm Calm - N/A   Clear
8:15 AM 14.5 °F - 12.7 °F 93% 30.24 in 10.0 mi Calm Calm - N/A   Clear
8:35 AM 17.6 °F - 15.8 °F 93% 30.24 in 10.0 mi Calm Calm - N/A   Clear
8:55 AM 19.6 °F - 17.1 °F 90% 30.24 in 10.0 mi Calm Calm - N/A   Clear
9:15 AM 25.0 °F - 15.4 °F 67% 30.23 in 10.0 mi Calm Calm - N/A   Clear
9:35 AM 26.6 °F 22.6 °F 13.6 °F 58% 30.23 in 10.0 mi NE 3.5 mph - N/A   Clear
9:55 AM 28.2 °F 24.4 °F 12.0 °F 51% 30.23 in 10.0 mi ENE 3.5 mph - N/A   Clear
10:15 AM 29.7 °F 24.7 °F 9.7 °F 43% 30.23 in 10.0 mi East 4.6 mph - N/A   Clear
10:35 AM 30.7 °F - 8.2 °F 39% 30.22 in 10.0 mi Calm Calm - N/A   Clear
10:55 AM 31.5 °F - 6.8 °F 35% 30.22 in 10.0 mi Calm Calm - N/A   Clear
11:15 AM 32.0 °F - 7.7 °F 36% 30.21 in 10.0 mi Calm Calm - N/A   Clear
11:34 AM 32.9 °F - 7.7 °F 35% 30.22 in 10.0 mi Calm Calm - N/A   Clear
11:55 AM 34.5 °F - 9.0 °F 35% 30.20 in 10.0 mi Calm Calm - N/A   Clear
12:15 PM 36.1 °F - 9.9 °F 34% 30.19 in 10.0 mi Calm Calm - N/A   Clear
12:34 PM 34.9 °F - 12.4 °F 40% 30.18 in 10.0 mi Calm Calm - N/A   Clear
12:55 PM 34.5 °F - 14.4 °F 44% 30.18 in 10.0 mi Calm Calm - N/A   Clear
1:15 PM 34.0 °F - 15.1 °F 46% 30.16 in 10.0 mi Calm Calm - N/A   Clear
1:35 PM 35.2 °F - 14.4 °F 42% 30.16 in 10.0 mi Calm Calm - N/A   Clear
1:55 PM 34.7 °F 28.1 °F 14.2 °F 43% 30.16 in 10.0 mi SSW 8.1 mph - N/A   Clear
2:15 PM 33.8 °F 27.7 °F 13.8 °F 44% 30.17 in 10.0 mi SW 6.9 mph - N/A   Clear
2:35 PM 34.3 °F 29.2 °F 13.8 °F 43% 30.17 in 10.0 mi SSW 5.8 mph - N/A   Clear
2:55 PM 34.7 °F - 13.5 °F 42% 30.16 in 10.0 mi Calm Calm - N/A   Clear
3:15 PM 34.9 °F 29.9 °F 14.4 °F 43% 30.12 in 10.0 mi South 5.8 mph - N/A   Clear
3:35 PM 35.6 °F 31.7 °F 13.6 °F 41% 30.11 in 10.0 mi South 4.6 mph - N/A   Clear
3:55 PM 36.0 °F - 13.1 °F 39% 30.11 in 10.0 mi Calm Calm - N/A   Clear
4:14 PM 36.5 °F 32.7 °F 14.0 °F 40% 30.10 in 10.0 mi SE 4.6 mph - N/A   Clear
4:35 PM 36.9 °F 33.1 °F 15.4 °F 42% 30.09 in 10.0 mi SE 4.6 mph - N/A   Clear
4:55 PM 36.9 °F - 11.8 °F 36% 30.09 in 10.0 mi Calm Calm - N/A   Clear
5:14 PM 37.2 °F - 13.3 °F 37% 30.09 in 10.0 mi Calm Calm - N/A   Clear
5:35 PM 37.6 °F - 12.6 °F 36% 30.09 in 10.0 mi Calm Calm - N/A   Clear
5:55 PM 37.9 °F 35.5 °F 14.9 °F 39% 30.09 in 10.0 mi SE 3.5 mph - N/A   Clear
6:15 PM 37.4 °F 32.8 °F 13.8 °F 38% 30.08 in 10.0 mi ESE 5.8 mph - N/A   Clear
6:35 PM 36.9 °F 33.1 °F 15.6 °F 42% 30.08 in 10.0 mi SE 4.6 mph - N/A   Clear
6:55 PM 36.1 °F 32.3 °F 14.9 °F 42% 30.08 in 10.0 mi SE 4.6 mph - N/A   Clear
7:15 PM 35.1 °F 31.0 °F 12.0 °F 39% 30.07 in 10.0 mi SE 4.6 mph - N/A   Clear
7:35 PM 34.7 °F - 10.6 °F 37% 30.08 in 10.0 mi Calm Calm - N/A   Clear
7:55 PM 33.4 °F 29.1 °F 11.3 °F 40% 30.08 in 10.0 mi SSE 4.6 mph - N/A   Clear
8:15 PM 32.5 °F 29.3 °F 11.7 °F 42% 30.08 in 10.0 mi SSE 3.5 mph - N/A   Clear
8:35 PM 31.1 °F - 13.1 °F 47% 30.08 in 10.0 mi Calm Calm - N/A   Clear
8:54 PM 30.2 °F - 12.9 °F 49% 30.09 in 10.0 mi Calm Calm - N/A   Clear
9:15 PM 30.4 °F - 9.9 °F 42% 30.09 in 10.0 mi Calm Calm - N/A   Clear
9:35 PM 30.0 °F - 9.5 °F 42% 30.10 in 10.0 mi Calm Calm - N/A   Clear
9:54 PM 29.7 °F - 10.0 °F 44% 30.10 in 10.0 mi Calm Calm - N/A   Clear
10:15 PM 29.7 °F - 9.1 °F 42% 30.10 in 10.0 mi Calm Calm - N/A   Clear
10:35 PM 29.5 °F - 10.8 °F 46% 30.11 in 10.0 mi Calm Calm - N/A   Clear
10:55 PM 27.0 °F - 14.5 °F 60% 30.10 in 10.0 mi Calm Calm - N/A   Clear
11:15 PM 29.5 °F - 15.8 °F 57% 30.10 in 10.0 mi Calm Calm - N/A   Clear
11:35 PM 29.1 °F 25.4 °F 15.8 °F 58% 30.11 in 10.0 mi East 3.5 mph - N/A   Clear
11:55 PM 28.9 °F - 17.1 °F 61% 30.11 in 10.0 mi Calm Calm - N/A   Clear